Location: *
(45.0167°N, 12.2167°E)
Time: 03:27:38
(UTC+00:00)

Daily predictions for brighter satellites

Satellite Brightness Start Highest point End
(mag) Time Altitude Azimuth Time Altitude Azimuth Time Altitude Azimuth
Cosmos 1980 Rocket 4.3 02:20:43 20° NE 02:21:07 21° NE 02:25:18 10° E
ATLAS 5 CENTAUR R/B 4.3 02:41:10 54° NNW 02:43:42 77° NE 03:17:15 10° SE
USA 234 4.4 02:40:09 10° NE 02:44:57 31° N 02:44:57 31° N
MSX 4.5 02:50:44 10° NNE 02:56:20 51° E 02:56:46 50° ESE
Cosmos 1697 Rocket 3.3 03:03:20 53° ESE 03:03:20 53° ESE 03:07:55 10° SE
COSMOS 2406 4.4 03:12:36 33° N 03:12:36 33° N 03:15:48 10° NNE
H-2A R/B 4.3 03:08:35 10° NNE 03:10:59 29° NE 03:10:59 29° NE
Meteor 1-11 4.4 03:15:39 57° SSE 03:16:42 70° E 03:22:28 10° NNE
Cosmos 1934 Rocket 3.9 03:22:28 50° S 03:24:17 89° WNW 03:30:42 10° N
Cosmos 2082 Rocket 2.6 03:22:45 37° S 03:24:53 61° ESE 03:30:31 10° NNE
Cosmos 923 Rocket 4.2 03:27:46 60° NNE 03:28:28 68° ENE 03:33:39 10° SSE
Cosmos 2084 Rocket 4.4 03:32:23 44° NE 03:32:23 44° NE 03:35:28 10° NE
CZ-4C R/B 3.7 03:40:02 23° NNW 03:40:02 23° NNW 03:44:17 10° NNE
BREEZE-M DEB (TANK) 4.5 03:32:35 34° WNW 03:40:00 75° N 03:45:07 10° E
Cosmos 1833 Rocket 2.5 03:46:04 65° WNW 03:46:14 66° WNW 03:51:50 10° NNE
Lacrosse 5 rocket 3.7 03:51:05 12° NNE 03:51:05 12° NNE 03:51:45 10° NNE
Cosmos 1898 Rocket 4.5 03:46:33 10° S 03:51:30 47° ESE 03:56:33 10° NNE
Cosmos 2123 Rocket 4.0 03:47:33 10° NNW 03:53:34 55° W 03:59:34 10° SSW
Cosmos 1076 Rocket 3.7 03:49:24 10° S 03:53:44 71° E 03:58:05 10° NNE
Cosmos 2058 3.7 03:51:03 10° S 03:55:09 53° E 03:59:16 10° NNE
SL-16 R/B 3.8 03:51:25 10° N 03:56:29 32° NE 04:01:31 10° ESE
IDEFIX/ARIANE 42P 4.2 03:52:18 10° N 03:54:04 20° NNW 03:54:04 20° NNW
Lacrosse 5 1.7 03:56:32 58° WSW 03:57:33 84° NW 04:02:40 10° NE
CZ-2C R/B 2.2 03:54:01 10° N 03:58:57 72° WNW 04:01:55 23° SSW
ASTEX 1 3.3 03:54:29 10° S 03:59:26 87° W 04:04:27 10° N
ATLAS 2AS CENTAUR R/B 3.9 03:53:43 14° NNW 04:00:04 41° NE 04:06:52 10° ESE
ISS -1.1 04:02:38 12° S 04:02:38 12° S 04:02:58 10° S
CZ-4B R/B 3.0 03:59:24 10° NNE 04:02:10 51° N 04:02:10 51° N
BREEZE-M DEB (TANK) 2.5 04:05:07 77° N 04:05:07 77° N 04:07:46 10° E
Cosmos 1980 Rocket 2.1 04:02:33 27° NNW 04:05:49 79° WSW 04:11:29 10° SSE
Meteor 2-20 4.5 04:00:06 10° N 04:06:19 83° E 04:12:28 10° S
Cosmos 2221 3.6 04:09:02 29° SSW 04:09:02 29° SSW 04:11:26 10° SSW
Cosmos 1605 Rocket 3.9 04:01:31 10° SSW 04:07:40 65° W 04:13:47 10° N
Cosmos 2322 Rocket 3.7 04:02:43 10° N 04:07:49 33° NE 04:12:54 10° ESE
Cosmos 1356 Rocket 3.4 04:08:03 18° N 04:11:17 88° W 04:15:34 10° S
STARLINK-43 3.8 04:10:20 41° SSW 04:11:20 57° SE 04:15:01 10° ENE
SL-4 R/B 3.3 04:17:16 29° NW 04:18:56 39° N 04:23:29 10° ENE
Meteor 2-2 Rocket 4.2 04:15:05 10° NNW 04:20:36 57° W 04:26:05 10° S
Gbstr 26 Del rocket 2.8 04:21:05 31° SW 04:22:46 67° SE 04:26:28 10° ENE
Cosmos 2369 4.4 04:22:39 30° W 04:22:54 31° WSW 04:27:49 10° SSW
COSMO-SKYMED 1 2.5 04:18:41 10° SSE 04:23:00 85° E 04:27:23 10° NNW
MOS 1-B 4.5 04:20:45 10° NNE 04:26:36 78° ESE 04:32:23 10° SSW
Meteor PRIRODA 3.5 04:23:29 10° N 04:27:09 63° WNW 04:30:45 10° SSW
USA 234 4.3 04:21:58 10° ENE 04:27:45 35° NNE 04:32:17 16° NW
Meteor 1-31 Rocket 3.1 04:24:37 10° N 04:28:09 39° WNW 04:28:09 39° WNW
SJ 16-02 1.2 04:26:47 10° SSW 04:31:11 86° WNW 04:35:36 10° NNE
COSMOS 2455 3.3 04:27:18 10° NNW 04:33:17 62° NE 04:39:14 10° SE
STARLINK-52 3.8 04:32:53 36° NW 04:33:26 39° NNW 04:36:46 10° NE
Cosmos 1484 Rocket 2.7 04:31:31 10° N 04:35:30 70° WNW 04:39:29 10° SSW
Cosmos 1869 3.5 04:33:50 22° NNW 04:36:01 44° W 04:39:45 10° SSW
CZ-4B R/B 3.9 04:32:37 10° NNE 04:37:55 56° ESE 04:43:16 10° S
Cosmos 2112 Rocket 4.3 04:34:37 16° NW 04:38:38 47° WSW 04:43:42 10° S
Shenzhou-11 Module 2.1 04:39:55 39° SW 04:40:34 52° S 04:43:14 10° ESE
COBE Rocket 4.3 04:35:46 10° S 04:40:42 45° W 04:45:36 10° NNW
PAYLOAD B 4.3 04:35:52 10° NNE 04:41:25 80° ESE 04:46:55 10° SSW
Cosmos 2151 3.0 04:37:17 10° S 04:41:35 84° E 04:45:56 10° N
Okean O Rocket 2.1 04:37:22 10° NNE 04:41:42 62° ESE 04:45:59 10° S
Cosmos 1697 Rocket 3.8 04:45:09 21° W 04:45:49 21° W 04:49:54 10° SSW
ATLAS CENTAUR R/B 4.0 04:41:49 10° S 04:46:00 29° ESE 04:50:08 10° NE
Cosmos 1680 Rocket 4.1 04:43:02 17° NW 04:46:22 34° WSW 04:51:07 10° SSW
Cosmos 1892 2.5 04:43:16 10° SSW 04:47:03 73° W 04:50:50 10° N
STARLINK-29 4.1 04:46:54 26° NW 04:48:00 31° NNW 04:51:10 10° NE
H-2A R/B 4.1 04:44:53 10° NNW 04:47:32 19° NW 04:47:32 19° NW
FENGYUN 3A 3.8 04:44:00 10° NNE 04:49:28 83° ESE 04:54:52 10° SSW
ALOS 2.2 04:46:25 10° NNE 04:51:08 87° W 04:55:47 10° SSW
Cosmos 1408 3.1 04:49:02 10° S 04:52:41 64° E 04:56:22 10° NNE
Cosmos 1459 Rocket 3.9 04:49:14 10° SSW 04:55:22 73° W 05:01:40 10° N
STARLINK-60 4.5 04:55:29 20° NW 04:56:47 25° NNW 04:59:39 10° NE
Cosmos 2016 Rocket 4.1 04:52:48 10° S 04:59:01 85° E 05:05:23 10° N
SL-27 R/B 3.1 04:57:15 10° SW 05:00:12 29° WNW 05:03:11 10° N
COSMOS 2487 4.1 04:59:39 10° S 05:02:52 38° ESE 05:06:07 10° NE
METEOR-M 4.1 04:58:30 10° N 05:03:50 72° WNW 05:09:09 10° SSW
CZ-4B DEB 4.2 04:58:50 10° N 05:04:13 60° WNW 05:09:36 10° SSW
BREEZE-M DEB 4.4 04:54:06 15° W 05:04:54 87° SSW 05:09:11 10° ESE
Cosmos 158 Rocket 4.3 05:00:28 10° NW 05:05:05 40° WSW 05:09:38 10° S
FALCON 9 DEB 4.4 05:04:14 17° WNW 05:06:03 26° NNW 05:09:01 10° NE
STARLINK-80 3.3 05:02:43 10° WSW 05:06:33 84° NNW 05:10:24 10° ENE
USA 116 3.6 05:03:54 10° S 05:06:54 41° W 05:10:06 10° NNW
Tsikada Rocket 4.4 05:01:25 10° N 05:07:51 73° E 05:14:11 10° SSE
Cosmos 990 Rocket 4.3 05:03:25 10° SW 05:08:17 41° WNW 05:13:14 10° N
In-Cosmos 22 Rocket 4.3 05:04:01 10° SSW 05:09:09 47° WNW 05:14:26 10° N
Cosmos 1933 4.1 05:05:19 10° N 05:09:18 56° E 05:13:14 10° SSE
Cosmos 2082 Rocket 3.2 05:04:43 10° WSW 05:09:24 25° NW 05:14:06 10° N
NOSS 3-4 (A) 4.2 05:04:11 10° NW 05:11:10 70° NE 05:18:49 10° SE
NOSS 3-4 (C) 4.2 05:04:17 10° NW 05:11:16 69° NE 05:18:55 10° SE
SKYMED 2 4.4 05:07:29 10° SSW 05:11:18 30° W 05:15:08 10° NW
H-2A R/B 4.3 05:09:26 10° NNE 05:12:56 38° E 05:16:24 10° SSE
Cosmos 2100 Rocket 4.2 05:08:30 10° SSW 05:14:29 49° WNW 05:20:27 10° N
Cosmos 1825 2.2 05:11:04 10° S 05:14:50 86° E 05:18:37 10° N
Helios 1A Rocket 3.0 05:12:12 10° N 05:16:13 52° WNW 05:20:11 10° SSW
Cosmos 1515 Rocket 3.6 05:14:24 10° N 05:18:46 88° E 05:23:06 10° S
NOSS 3-3 (A) 4.2 05:13:55 10° WSW 05:19:45 51° NW 05:26:18 10° NNE
NOSS 3-3 (C) 4.2 05:14:01 10° WSW 05:19:51 52° NW 05:26:25 10° NNE
STARLINK-61 4.3 05:16:25 10° SW 05:20:21 54° SE 05:24:19 10° ENE
STARLINK-48 3.4 05:16:51 10° WSW 05:20:45 83° NNW 05:24:40 10° ENE
Cosmos 1328 Rocket 3.6 05:16:55 10° NNW 05:21:10 53° W 05:25:21 10° S
SL-08 R/B 4.4 05:16:43 10° SSW 05:22:51 77° W 05:28:58 10° N
Cosmos 1743 Rocket 3.9 05:18:32 10° S 05:22:51 71° E 05:27:10 10° NNE
Cosmos 1802 Rocket 4.2 05:20:19 10° SSW 05:26:34 53° WNW 05:32:51 10° N
SJ-7 4.4 05:23:34 10° N 05:27:45 65° WNW 05:31:51 10° SSW
Cosmos 1151 Rocket 3.3 05:24:34 10° NNW 05:28:48 48° W 05:33:00 10° SSW
CZ-4C R/B 4.3 05:26:47 10° NW 05:30:17 15° N 05:34:05 10° NE
Lacrosse 5 rocket 3.2 05:28:00 10° NNW 05:30:20 16° NNE 05:32:39 10° NE
Cosmos 1833 Rocket 4.3 05:28:27 10° WNW 05:31:19 14° NW 05:34:11 10° N
Meteor 2-3 Rocket 4.2 05:28:03 10° S 05:33:44 71° E 05:39:31 10° NNE
Cosmos 1898 Rocket 4.5 05:29:29 10° WSW 05:33:50 26° NW 05:38:15 10° N
Cosmos 2061 Rocket 4.2 05:28:55 10° SSW 05:34:59 51° WNW 05:41:03 10° N
USA 267 3.8 05:29:21 10° NE 05:35:52 67° SE 05:42:22 10° SW
CZ-2C R/B 4.2 05:35:23 10° NW 05:36:14 10° NW 05:37:04 10° WNW
SL-16 R/B 2.6 05:35:22 10° NW 05:40:44 45° WSW 05:46:05 10° S
Lacrosse 5 3.0 05:36:45 10° W 05:41:07 28° NNW 05:45:30 10° NE
Radarsat Rocket 3.9 05:35:29 10° NNE 05:41:20 72° WNW 05:47:10 10° SSW
